CFG6HE EDDM-LEBL

Flight info

Callsign CFG6HE
Flight time N/A
Altitude 35000
Route TURBU7S TURBU Y107 TOBSO DCT BAKOR DCT GEKBA DCT VAMTU DCT KOLON DCT GANGU DCT PADKO DCT DIVKO DCT NILDU N975 BISBA
Aircraft A320/M-SDE3FGHIRWY/LB1

Departure

Time 2026-05-07 16:10
Airport Munich Airport (EDDM)

Arrival

Time N/A
Airport Josep Tarradellas Barcelona-El Prat Airport (LEBL)
Time Latitude Longitude Altitude Speed Heading
2026-05-07 15:40 48.34998 11.78379 1486 ft 0 kts 83°
2026-05-07 15:59 48.34996 11.78354 1485 ft 4 kts 83°
2026-05-07 15:59 48.34993 11.78314 1476 ft 4 kts 83°
2026-05-07 15:59 48.34990 11.78274 1485 ft 4 kts 83°
2026-05-07 16:00 48.34987 11.78241 1476 ft 4 kts 66°
2026-05-07 16:00 48.34971 11.78213 1485 ft 4 kts 23°
2026-05-07 16:00 48.34945 11.78205 1485 ft 4 kts 356°
2026-05-07 16:00 48.34923 11.78208 1485 ft 1 kts 353°
2026-05-07 16:03 48.34924 11.78208 1485 ft 1 kts 353°
2026-05-07 16:03 48.34961 11.78202 1475 ft 9 kts 353°
2026-05-07 16:03 48.35049 11.78187 1478 ft 14 kts 354°
2026-05-07 16:03 48.35153 11.78170 1471 ft 16 kts 352°
2026-05-07 16:04 48.35198 11.78087 1480 ft 10 kts 264°
2026-05-07 16:04 48.35189 11.77976 1475 ft 11 kts 263°
2026-05-07 16:04 48.35176 11.77857 1485 ft 12 kts 246°
2026-05-07 16:04 48.35108 11.77823 1477 ft 11 kts 172°
2026-05-07 16:05 48.35030 11.77838 1485 ft 12 kts 173°
2026-05-07 16:05 48.34922 11.77856 1485 ft 16 kts 174°
2026-05-07 16:05 48.34818 11.77874 1485 ft 14 kts 173°
2026-05-07 16:05 48.34746 11.77888 1485 ft 4 kts 173°
2026-05-07 16:06 48.34738 11.77889 1475 ft 0 kts 173°
2026-05-07 16:06 48.34714 11.77894 1477 ft 11 kts 171°
2026-05-07 16:06 48.34675 11.78025 1481 ft 16 kts 63°
2026-05-07 16:07 48.34686 11.78181 1477 ft 14 kts 84°
2026-05-07 16:07 48.34696 11.78316 1480 ft 12 kts 83°
2026-05-07 16:07 48.34707 11.78430 1485 ft 10 kts 82°
2026-05-07 16:07 48.34713 11.78525 1485 ft 8 kts 85°
2026-05-07 16:08 48.34718 11.78602 1485 ft 7 kts 84°
2026-05-07 16:08 48.34709 11.78717 1471 ft 16 kts 138°
2026-05-07 16:08 48.34610 11.78738 1478 ft 13 kts 181°
2026-05-07 16:08 48.34522 11.78649 1483 ft 23 kts 233°
2026-05-07 16:09 48.34422 11.78443 1477 ft 25 kts 233°
2026-05-07 16:09 48.34324 11.78208 1483 ft 33 kts 248°
2026-05-07 16:09 48.34275 11.77768 1480 ft 64 kts 265°
2026-05-07 16:09 48.34198 11.76760 1478 ft 127 kts 264°
2026-05-07 16:10 48.34082 11.75192 1548 ft 168 kts 264°
2026-05-07 16:10 48.33949 11.73493 2324 ft 161 kts 266°
2026-05-07 16:10 48.33649 11.71891 3018 ft 163 kts 237°
2026-05-07 16:10 48.32705 11.70908 3473 ft 177 kts 194°
2026-05-07 16:11 48.31398 11.70782 3686 ft 197 kts 184°
2026-05-07 16:11 48.29960 11.70756 3917 ft 219 kts 181°
2026-05-07 16:11 48.28427 11.71219 4368 ft 233 kts 157°
2026-05-07 16:11 48.26978 11.72552 4743 ft 257 kts 147°
2026-05-07 16:12 48.25444 11.74127 5220 ft 274 kts 147°
2026-05-07 16:12 48.23854 11.75753 5988 ft 280 kts 147°
2026-05-07 16:12 48.22232 11.77402 6782 ft 283 kts 148°
2026-05-07 16:12 48.20554 11.78989 7456 ft 291 kts 157°
2026-05-07 16:13 48.18629 11.80131 7717 ft 313 kts 162°
2026-05-07 16:13 48.16500 11.81263 7937 ft 336 kts 166°
2026-05-07 16:13 48.14133 11.81712 8165 ft 352 kts 181°
2026-05-07 16:13 48.11654 11.81812 8745 ft 359 kts 181°
2026-05-07 16:14 48.09144 11.81901 8977 ft 361 kts 181°
2026-05-07 16:14 48.06603 11.81992 9030 ft 361 kts 181°
2026-05-07 16:14 48.04127 11.82083 9023 ft 361 kts 181°
2026-05-07 16:14 48.01614 11.82175 9029 ft 362 kts 181°
2026-05-07 16:15 47.99096 11.82267 9029 ft 363 kts 181°
2026-05-07 16:15 47.96567 11.82356 9127 ft 366 kts 181°
2026-05-07 16:15 47.94018 11.82449 9927 ft 367 kts 181°
2026-05-07 16:15 47.91452 11.82542 10627 ft 370 kts 181°
2026-05-07 16:16 47.88879 11.82636 11331 ft 371 kts 181°
2026-05-07 16:16 47.86284 11.82732 12013 ft 374 kts 181°
2026-05-07 16:16 47.83675 11.82829 12676 ft 377 kts 181°
2026-05-07 16:16 47.81039 11.82925 13290 ft 381 kts 181°
2026-05-07 16:17 47.78378 11.83023 13905 ft 385 kts 181°
2026-05-07 16:17 47.75689 11.83121 14460 ft 388 kts 181°
2026-05-07 16:17 47.72980 11.83219 14996 ft 392 kts 181°
2026-05-07 16:17 47.70246 11.83317 15554 ft 395 kts 181°
2026-05-07 16:18 47.67495 11.83414 16095 ft 398 kts 181°
2026-05-07 16:18 47.64704 11.83512 16693 ft 401 kts 181°
2026-05-07 16:18 47.61902 11.83612 17231 ft 404 kts 181°
2026-05-07 16:18 47.59079 11.83717 17736 ft 408 kts 181°
2026-05-07 16:19 47.56223 11.83822 18258 ft 411 kts 181°
2026-05-07 16:19 47.53350 11.83924 18689 ft 415 kts 181°
2026-05-07 16:19 47.50455 11.84026 19133 ft 417 kts 181°
2026-05-07 16:19 47.47545 11.84130 19558 ft 420 kts 181°
2026-05-07 16:20 47.44609 11.84236 19967 ft 423 kts 181°
2026-05-07 16:20 47.41654 11.84343 20353 ft 426 kts 181°
2026-05-07 16:20 47.38679 11.84452 20767 ft 429 kts 180°
2026-05-07 16:20 47.35686 11.84560 21148 ft 432 kts 180°
2026-05-07 16:21 47.32672 11.84666 21523 ft 434 kts 181°
2026-05-07 16:21 47.29642 11.84769 21906 ft 437 kts 180°
2026-05-07 16:21 47.26589 11.84874 22270 ft 439 kts 180°
2026-05-07 16:21 47.23530 11.84982 22622 ft 442 kts 180°
2026-05-07 16:22 47.20449 11.85091 22987 ft 444 kts 181°
2026-05-07 16:22 47.18399 11.85162 23197 ft 445 kts 180°
2026-05-07 16:22 47.14284 11.85300 23602 ft 448 kts 180°
2026-05-07 16:22 47.11158 11.85407 23903 ft 450 kts 180°
2026-05-07 16:23 47.08019 11.85516 24208 ft 452 kts 180°
2026-05-07 16:23 47.04878 11.85627 24514 ft 453 kts 180°
2026-05-07 16:23 47.01732 11.85543 24790 ft 452 kts 187°
2026-05-07 16:23 46.98633 11.84812 25085 ft 451 kts 194°
2026-05-07 16:24 46.96557 11.84144 25243 ft 452 kts 194°
2026-05-07 16:24 46.93479 11.83154 25454 ft 454 kts 194°
2026-05-07 16:24 46.90384 11.82166 25697 ft 456 kts 194°
2026-05-07 16:24 46.87283 11.81185 25970 ft 456 kts 194°
2026-05-07 16:25 46.84178 11.80209 26222 ft 458 kts 194°
2026-05-07 16:25 46.81063 11.79232 26474 ft 458 kts 194°
2026-05-07 16:25 46.77980 11.78265 26708 ft 459 kts 194°
2026-05-07 16:25 46.74853 11.77281 26952 ft 459 kts 195°
2026-05-07 16:26 46.71738 11.76298 27283 ft 457 kts 195°
2026-05-07 16:26 46.68632 11.75319 27607 ft 456 kts 195°
2026-05-07 16:26 46.65565 11.74194 27932 ft 452 kts 202°
2026-05-07 16:26 46.62690 11.72429 28270 ft 446 kts 211°
2026-05-07 16:27 46.60082 11.70038 28595 ft 441 kts 220°
2026-05-07 16:27 46.57799 11.67097 28891 ft 436 kts 229°
2026-05-07 16:27 46.55861 11.63750 29292 ft 431 kts 234°
2026-05-07 16:27 46.53996 11.60360 29660 ft 428 kts 234°
2026-05-07 16:28 46.52136 11.57007 30017 ft 425 kts 233°
2026-05-07 16:28 46.50278 11.53671 30274 ft 425 kts 234°
2026-05-07 16:28 46.48423 11.50344 30569 ft 423 kts 234°
2026-05-07 16:28 46.46574 11.47027 30832 ft 422 kts 234°
2026-05-07 16:29 46.44729 11.43714 30928 ft 422 kts 234°
2026-05-07 16:29 46.41044 11.37103 30952 ft 421 kts 234°
2026-05-07 16:30 46.37385 11.30545 31004 ft 416 kts 234°
2026-05-07 16:30 46.33734 11.24028 31060 ft 418 kts 234°
2026-05-07 16:31 46.30075 11.17513 31057 ft 418 kts 233°
2026-05-07 16:31 46.26397 11.10988 31061 ft 418 kts 234°
2026-05-07 16:32 46.22717 11.04469 31219 ft 419 kts 234°
2026-05-07 16:32 46.20879 11.01217 31547 ft 417 kts 234°
2026-05-07 16:32 46.19071 10.98026 31877 ft 416 kts 234°
2026-05-07 16:32 46.17242 10.94796 32126 ft 415 kts 234°
2026-05-07 16:33 46.15417 10.91571 32371 ft 415 kts 234°
2026-05-07 16:33 46.13594 10.88352 32654 ft 414 kts 234°
2026-05-07 16:33 46.11771 10.85141 32903 ft 413 kts 234°
2026-05-07 16:33 46.09948 10.81936 33205 ft 413 kts 234°
2026-05-07 16:34 46.08130 10.78746 33483 ft 411 kts 234°
2026-05-07 16:34 46.06316 10.75571 33753 ft 411 kts 234°
2026-05-07 16:34 46.04503 10.72404 34047 ft 408 kts 234°
2026-05-07 16:34 46.02701 10.69259 34279 ft 407 kts 234°
2026-05-07 16:35 46.00897 10.66112 34472 ft 407 kts 234°
2026-05-07 16:35 45.99098 10.62971 34660 ft 407 kts 234°
2026-05-07 16:35 45.97297 10.59834 34873 ft 407 kts 234°
2026-05-07 16:35 45.95492 10.56692 34988 ft 408 kts 233°
2026-05-07 16:36 45.93678 10.53535 35017 ft 411 kts 233°
2026-05-07 16:36 45.90024 10.47178 35006 ft 413 kts 233°
2026-05-07 16:37 45.86374 10.40857 34996 ft 409 kts 233°
2026-05-07 16:37 45.82742 10.34589 34986 ft 408 kts 234°
2026-05-07 16:38 45.79117 10.28336 34987 ft 408 kts 233°
2026-05-07 16:38 45.75486 10.22090 34972 ft 408 kts 233°
2026-05-07 16:39 45.71849 10.15856 34963 ft 408 kts 233°
2026-05-07 16:39 45.68214 10.09623 34945 ft 408 kts 233°
2026-05-07 16:40 45.64576 10.03397 34967 ft 407 kts 233°
2026-05-07 16:40 45.60940 9.97196 34973 ft 407 kts 233°
2026-05-07 16:41 45.57300 9.90999 34977 ft 407 kts 233°
2026-05-07 16:41 45.53661 9.84815 34962 ft 407 kts 233°
2026-05-07 16:42 45.50011 9.78641 34970 ft 407 kts 233°
2026-05-07 16:42 45.46357 9.72475 35031 ft 407 kts 233°
2026-05-07 16:43 45.42713 9.66319 35033 ft 408 kts 233°
2026-05-07 16:43 45.39052 9.60155 35032 ft 408 kts 233°
2026-05-07 16:44 45.35386 9.54010 35012 ft 407 kts 232°
2026-05-07 16:44 45.31722 9.47873 35004 ft 407 kts 232°
2026-05-07 16:45 45.28064 9.41746 34991 ft 406 kts 232°
2026-05-07 16:45 45.24398 9.35639 34956 ft 406 kts 232°
2026-05-07 16:46 45.20730 9.29543 34965 ft 406 kts 232°
2026-05-07 16:46 45.17056 9.23443 34963 ft 406 kts 232°
2026-05-07 16:47 45.13411 9.17398 34962 ft 406 kts 232°
2026-05-07 16:47 45.09739 9.11321 34968 ft 406 kts 232°
2026-05-07 16:48 45.06067 9.05260 34967 ft 406 kts 232°
2026-05-07 16:48 45.02395 8.99200 34953 ft 406 kts 232°
2026-05-07 16:49 44.98709 8.93148 34963 ft 406 kts 232°
2026-05-07 16:49 44.95022 8.87106 34971 ft 406 kts 232°
2026-05-07 16:50 44.91338 8.81079 34973 ft 406 kts 232°
2026-05-07 16:50 44.87649 8.75055 34996 ft 406 kts 232°
2026-05-07 16:51 44.83952 8.69032 34973 ft 406 kts 231°
2026-05-07 16:51 44.80252 8.63025 34984 ft 405 kts 231°
2026-05-07 16:52 44.76561 8.57031 34989 ft 405 kts 231°
2026-05-07 16:52 44.72865 8.51051 34994 ft 405 kts 231°
2026-05-07 16:53 44.69168 8.45087 34984 ft 405 kts 231°
2026-05-07 16:53 44.65473 8.39133 34984 ft 403 kts 231°
2026-05-07 16:54 44.61795 8.33213 34994 ft 402 kts 231°
2026-05-07 16:54 44.58120 8.27311 34995 ft 401 kts 231°
2026-05-07 16:55 44.54442 8.21423 34998 ft 401 kts 231°
2026-05-07 16:55 44.50763 8.15550 34991 ft 401 kts 231°
2026-05-07 16:56 44.47091 8.09679 34992 ft 401 kts 231°
2026-05-07 16:56 44.41575 8.00902 34981 ft 400 kts 231°
2026-05-07 16:57 44.37893 7.95069 34987 ft 401 kts 231°
2026-05-07 16:57 44.34227 7.89266 34965 ft 402 kts 231°
2026-05-07 16:58 44.30509 7.83385 34979 ft 401 kts 231°
2026-05-07 16:58 44.26798 7.77642 34990 ft 402 kts 226°
2026-05-07 16:59 44.22592 7.72421 35000 ft 402 kts 225°
2026-05-07 16:59 44.18422 7.67296 34999 ft 402 kts 225°
2026-05-07 17:00 44.14286 7.62083 34977 ft 398 kts 230°
2026-05-07 17:00 44.10661 7.56278 35003 ft 397 kts 231°
2026-05-07 17:01 44.07046 7.50496 34995 ft 397 kts 231°
2026-05-07 17:01 44.03420 7.44703 34998 ft 397 kts 231°
2026-05-07 17:02 43.99789 7.38920 34999 ft 397 kts 231°
2026-05-07 17:02 43.96157 7.33158 34997 ft 396 kts 231°
2026-05-07 17:03 43.92533 7.27417 34998 ft 395 kts 231°
2026-05-07 17:03 43.88917 7.21691 35002 ft 394 kts 231°
2026-05-07 17:04 43.85299 7.15976 35005 ft 394 kts 231°
2026-05-07 17:04 43.81688 7.10278 34999 ft 393 kts 231°
2026-05-07 17:05 43.78076 7.04587 34991 ft 393 kts 231°
2026-05-07 17:05 43.74491 6.98950 34993 ft 393 kts 231°
2026-05-07 17:06 43.71445 6.92775 34991 ft 389 kts 246°
2026-05-07 17:06 43.69409 6.85858 34986 ft 389 kts 248°
2026-05-07 17:07 43.67372 6.78940 34981 ft 388 kts 248°
2026-05-07 17:07 43.65337 6.72042 34971 ft 388 kts 248°
2026-05-07 17:08 43.63289 6.65146 34953 ft 388 kts 247°
2026-05-07 17:08 43.61245 6.58260 34962 ft 387 kts 247°
2026-05-07 17:09 43.59198 6.51386 34958 ft 387 kts 247°
2026-05-07 17:09 43.57150 6.44528 34977 ft 387 kts 247°
2026-05-07 17:10 43.55099 6.37670 34969 ft 386 kts 247°
2026-05-07 17:10 43.53378 6.31941 34963 ft 386 kts 247°
2026-05-07 17:11 43.51335 6.25148 34958 ft 386 kts 247°
2026-05-07 17:11 43.49270 6.18312 34954 ft 387 kts 247°
2026-05-07 17:12 43.47202 6.11478 34955 ft 386 kts 247°